Find Starlink 32723

NORAD ID: 62449 Int'l Des: 2024-251 Owner: SPXS Country: US Constellation: starlink operational
LEOCIRCULAR

現在のビュー

3D地球を読み込み中...

About Starlink 32723

Starlink 32723 (NORAD 62449) is a starlink constellation satellite (v2 mini) launched Dec 29, 2024 by SPXS of US. It operates in LEO, CIRCULAR orbit with a mass of 730.00 kg.

次回通過

Passes for default location (London). Set your location on the main map for personalized predictions.

高度履歴

Loading altitude history...

軌道要素

1 62449U 24251T 26263.40580317 .00025040 00000-0 74913-3 0 9994
2 62449 53.1574 147.7960 0000732 275.9857 84.1062 15.34426353 97644
Epoch: Sep 20, 2026 • Age: 13 hours

現在のステータス

高度 473.6 km
遠地点 / 近地点 N/A
速度 7.63 km/s
衛星直下点 -35.66°S, 9.22°E
打ち上げ日 Dec 29, 2024
運用期間 1.7 years
タイプ internet

技術仕様

分類 Payload
質量 730.00 kg
乾燥質量 700.00 kg
長さ 0.30 m
スパン 29.00 m
形状 ? Box + pan
製造者 SPXS
バスタイプ Starlink V2M
フェーズステータス In Orbit
所有者/国 SPXS/US

Most Searched